Overview Statistics Trail Chart Weather Telemetry Raw packets
 

This is the latest recevied weather packets stored in our database for station/object K5SVV. If no packets are shown the sender has not sent any weather packets the latest 10 day(s).

<< 40 41 42 43 44 45 46 >>
Time Temp. Humidity Pressure Rain* Wind** Luminosity Snow
1788386242 37.22° C 40% 1010.8 hPa 0 mm - 464 W/m² -
1788385937 37.22° C 41% 1010.8 hPa 0 mm - 470 W/m² -
1788385633 36.67° C 41% 1010.9 hPa 0 mm - 466 W/m² -
1788385331 36.67° C 42% 1011.2 hPa 0 mm - 484 W/m² -
1788385027 36.67° C 42% 1010.8 hPa 0 mm - 507 W/m² -
1788384722 37.22° C 41% 1011 hPa 0 mm - 525 W/m² -
1788384416 36.67° C 42% 1011 hPa 0 mm - 500 W/m² -
1788384113 36.67° C 42% 1011.3 hPa 0 mm - 507 W/m² -
1788383809 36.67° C 42% 1011.2 hPa 0 mm - 569 W/m² -
1788383509 36.67° C 42% 1011.5 hPa 0 mm - 548 W/m² -
1788383208 36.67° C 42% 1011.4 hPa 0 mm - 550 W/m² -
1788382903 36.67° C 43% 1011.4 hPa 0 mm - 588 W/m² -
1788382602 36.11° C 44% 1011.6 hPa 0 mm - 607 W/m² -
1788382297 36.67° C 42% 1011.4 hPa 0 mm - 633 W/m² -
1788381992 36.11° C 44% 1011.4 hPa 0 mm - 644 W/m² -
1788381686 36.11° C 43% 1011.4 hPa 0 mm - 635 W/m² -
1788381382 36.11° C 44% 1011.6 hPa 0 mm - 665 W/m² -
1788381081 36.11° C 44% 1012 hPa 0 mm - 679 W/m² -
1788380772 36.11° C 44% 1011.9 hPa 0 mm - 671 W/m² -
1788380468 36.11° C 44% 1011.8 hPa 0 mm - 681 W/m² -
1788380164 36.11° C 44% 1011.8 hPa 0 mm - 684 W/m² -
1788379863 36.11° C 46% 1012.1 hPa 0 mm - 698 W/m² -
1788379558 35.56° C 47% 1012.2 hPa 0 mm - 699 W/m² -
1788379254 36.11° C 46% 1012.1 hPa 0 mm - 697 W/m² -
1788378950 36.11° C 45% 1012.2 hPa 0 mm - 694 W/m² -

* Rain latest hour (hover to see other rain measurements)
** Current wind speed in m/s (hover to see current wind gust speed)